Hourly Weather Kozluk

Today, 26 January, Tuesday

Time Temperature Precipitation Wind Pressure Humidity
00:00 +1°C° 0 mm 1 mps 683 mmHg 51%
01:00 +1°C° 0 mm 1 mps 683 mmHg 52%
02:00 +1°C° 0 mm 1 mps 682 mmHg 52%
03:00 +1°C° 0 mm 1 mps 682 mmHg 52%
04:00 0°C° 0 mm 1 mps 682 mmHg 52%
05:00 0°C° 0 mm 1 mps 682 mmHg 51%
06:00 -2°C° 0 mm 2 mps 682 mmHg 51%
07:00 -2°C° 0 mm 2 mps 683 mmHg 53%
08:00 -1°C° 0 mm 2 mps 683 mmHg 54%
09:00 +2°C° 0 mm 1 mps 683 mmHg 55%
10:00 +3°C° 0 mm 1 mps 683 mmHg 59%
11:00 +4°C° 0 mm 1 mps 683 mmHg 63%
12:00 +5°C° 0 mm 1 mps 683 mmHg 68%
13:00 +5°C° 0 mm 1 mps 683 mmHg 67%
14:00 +5°C° 0 mm 1 mps 683 mmHg 67%
15:00 +5°C° 0 mm 1 mps 682 mmHg 66%
16:00 +4°C° 0 mm 1 mps 682 mmHg 63%
17:00 +2°C° 0 mm 2 mps 682 mmHg 61%
18:00 +1°C° 0 mm 2 mps 682 mmHg 59%
19:00 +1°C° 0 mm 2 mps 682 mmHg 58%
20:00 +1°C° 0 mm 2 mps 682 mmHg 58%
21:00 -1°C° 0 mm 2 mps 682 mmHg 57%
22:00 -1°C° 0 mm 2 mps 682 mmHg 58%
23:00 -1°C° 0 mm 2 mps 682 mmHg 58%

Tomorrow, 27 January, Wednesday

Time Temperature Precipitation Wind Pressure Humidity
00:00 -1°C° 0 mm 2 mps 682 mmHg 58%
01:00 -1°C° 0 mm 2 mps 682 mmHg 58%
02:00 -1°C° 0 mm 2 mps 682 mmHg 58%
03:00 -1°C° 0 mm 2 mps 682 mmHg 58%
04:00 -1°C° 0 mm 2 mps 681 mmHg 59%
05:00 -1°C° 0 mm 2 mps 681 mmHg 59%
06:00 -1°C° 0 mm 2 mps 681 mmHg 59%
07:00 -1°C° 0 mm 2 mps 681 mmHg 59%
08:00 +1°C° 0 mm 2 mps 681 mmHg 59%
09:00 +1°C° 0 mm 2 mps 681 mmHg 59%
10:00 +4°C° 0 mm 1 mps 681 mmHg 61%
11:00 +5°C° 0 mm 1 mps 681 mmHg 63%
12:00 +6°C° 0 mm 1 mps 681 mmHg 65%
13:00 +6°C° 0 mm 1 mps 681 mmHg 64%
14:00 +6°C° 0 mm 0 mps 680 mmHg 64%
15:00 +6°C° 0 mm 0 mps 680 mmHg 63%
16:00 +6°C° 0 mm 1 mps 679 mmHg 60%
17:00 +5°C° 0 mm 1 mps 679 mmHg 57%
18:00 +3°C° 0 mm 2 mps 679 mmHg 55%
19:00 +3°C° 0 mm 2 mps 679 mmHg 54%
20:00 +3°C° 0 mm 2 mps 679 mmHg 53%
21:00 +3°C° 0 mm 2 mps 679 mmHg 52%
22:00 +4°C° 0 mm 1 mps 679 mmHg 52%
23:00 +5°C° 0 mm 1 mps 679 mmHg 52%

Day after tomorrow, 28 January, Thursday

Time Temperature Precipitation Wind Pressure Humidity
00:00 +5°C° 0 mm 1 mps 678 mmHg 53%
01:00 +3°C° 0.4 mm 2 mps 678 mmHg 63%
02:00 +2°C° 0.4 mm 3 mps 678 mmHg 73%
03:00 +1°C° 0.4 mm 3 mps 678 mmHg 83%
04:00 +1°C° 1 mm 3 mps 677 mmHg 86%
05:00 +1°C° 1 mm 3 mps 677 mmHg 89%
06:00 +2°C° 1 mm 3 mps 677 mmHg 92%
07:00 +2°C° 0.4 mm 3 mps 677 mmHg 90%
08:00 +2°C° 0.4 mm 3 mps 677 mmHg 87%
09:00 +3°C° 0.4 mm 3 mps 677 mmHg 85%
10:00 +4°C° 0.1 mm 3 mps 677 mmHg 83%
11:00 +5°C° 0.1 mm 3 mps 676 mmHg 80%
12:00 +7°C° 0.1 mm 2 mps 676 mmHg 78%
13:00 +6°C° 0.4 mm 2 mps 676 mmHg 81%
14:00 +6°C° 0.4 mm 2 mps 675 mmHg 85%
15:00 +5°C° 0.4 mm 2 mps 674 mmHg 88%
16:00 +5°C° 1.2 mm 2 mps 675 mmHg 90%
17:00 +5°C° 1.2 mm 2 mps 675 mmHg 91%
18:00 +4°C° 1.2 mm 2 mps 675 mmHg 93%
19:00 +5°C° 1.2 mm 1 mps 675 mmHg 93%
20:00 +5°C° 1.2 mm 1 mps 676 mmHg 94%
21:00 +5°C° 1.2 mm 1 mps 676 mmHg 95%
22:00 +5°C° 0.5 mm 1 mps 676 mmHg 94%
23:00 +4°C° 0.5 mm 1 mps 676 mmHg 94%

29 January, Friday

Time Temperature Precipitation Wind Pressure Humidity
00:00 +4°C° 0.5 mm 1 mps 676 mmHg 94%
01:00 +4°C° 0.1 mm 1 mps 676 mmHg 93%
02:00 +3°C° 0.1 mm 1 mps 676 mmHg 92%
03:00 +3°C° 0.1 mm 1 mps 676 mmHg 91%
04:00 +3°C° 0 mm 1 mps 676 mmHg 90%
05:00 +3°C° 0 mm 1 mps 676 mmHg 89%
06:00 +3°C° 0 mm 1 mps 676 mmHg 88%
07:00 +3°C° 0 mm 1 mps 676 mmHg 87%
08:00 +4°C° 0 mm 1 mps 676 mmHg 86%
09:00 +4°C° 0 mm 1 mps 677 mmHg 84%
10:00 +5°C° 0 mm 1 mps 677 mmHg 82%
11:00 +6°C° 0 mm 1 mps 676 mmHg 81%
12:00 +7°C° 0 mm 1 mps 676 mmHg 79%
13:00 +6°C° 0.3 mm 1 mps 676 mmHg 82%
14:00 +6°C° 0.3 mm 1 mps 675 mmHg 84%
15:00 +6°C° 0.3 mm 1 mps 675 mmHg 87%
16:00 +5°C° 0.4 mm 1 mps 675 mmHg 88%
17:00 +5°C° 0.4 mm 1 mps 675 mmHg 90%
18:00 +4°C° 0.4 mm 1 mps 675 mmHg 91%
19:00 +4°C° 0.1 mm 1 mps 675 mmHg 91%
20:00 +4°C° 0.1 mm 1 mps 675 mmHg 91%
21:00 +4°C° 0.1 mm 1 mps 675 mmHg 90%
22:00 +3°C° 0 mm 1 mps 676 mmHg 90%
23:00 +3°C° 0 mm 1 mps 676 mmHg 91%

30 January, Saturday

Time Temperature Precipitation Wind Pressure Humidity
00:00 +3°C° 0 mm 1 mps 676 mmHg 91%
01:00 +3°C° 0 mm 1 mps 675 mmHg 90%
02:00 +3°C° 0 mm 1 mps 675 mmHg 89%
03:00 +2°C° 0 mm 1 mps 675 mmHg 88%
04:00 +2°C° 0 mm 1 mps 675 mmHg 87%
05:00 +2°C° 0 mm 1 mps 675 mmHg 86%
06:00 +2°C° 0 mm 1 mps 675 mmHg 85%
07:00 +2°C° 0 mm 1 mps 676 mmHg 83%
08:00 +3°C° 0 mm 1 mps 676 mmHg 81%
09:00 +3°C° 0 mm 1 mps 677 mmHg 79%
10:00 +4°C° 0 mm 1 mps 677 mmHg 79%
11:00 +5°C° 0 mm 1 mps 677 mmHg 79%
12:00 +5°C° 0 mm 0 mps 676 mmHg 79%
13:00 +5°C° 0.1 mm 0 mps 676 mmHg 79%
14:00 +6°C° 0.1 mm 1 mps 676 mmHg 78%
15:00 +7°C° 0.1 mm 1 mps 676 mmHg 78%
16:00 +6°C° 0.1 mm 1 mps 676 mmHg 80%
17:00 +6°C° 0.1 mm 1 mps 676 mmHg 83%
18:00 +5°C° 0.1 mm 1 mps 677 mmHg 86%
19:00 +5°C° 0.2 mm 1 mps 677 mmHg 88%
20:00 +5°C° 0.2 mm 1 mps 677 mmHg 90%
21:00 +4°C° 0.2 mm 1 mps 677 mmHg 92%
22:00 +4°C° 0.2 mm 1 mps 678 mmHg 91%
23:00 +5°C° 0.2 mm 1 mps 678 mmHg 91%

31 January, Sunday

Time Temperature Precipitation Wind Pressure Humidity
00:00 +5°C° 0.2 mm 1 mps 678 mmHg 90%
01:00 +5°C° 0.2 mm 1 mps 678 mmHg 91%
02:00 +4°C° 0.2 mm 1 mps 678 mmHg 91%
03:00 +4°C° 0.2 mm 1 mps 678 mmHg 92%
04:00 +4°C° 1.2 mm 1 mps 677 mmHg 93%
05:00 +4°C° 1.2 mm 1 mps 677 mmHg 95%
06:00 +4°C° 1.2 mm 1 mps 677 mmHg 97%
07:00 +3°C° 2.2 mm 2 mps 677 mmHg 97%
08:00 +3°C° 2.2 mm 2 mps 678 mmHg 97%
09:00 +3°C° 2.2 mm 2 mps 678 mmHg 97%
10:00 +3°C° 1.8 mm 2 mps 678 mmHg 97%
11:00 +3°C° 1.8 mm 2 mps 678 mmHg 97%
12:00 +3°C° 1.8 mm 2 mps 678 mmHg 97%
13:00 +3°C° 0.8 mm 2 mps 678 mmHg 96%
14:00 +3°C° 0.8 mm 2 mps 678 mmHg 96%
15:00 +4°C° 0.8 mm 1 mps 678 mmHg 96%
16:00 +4°C° 0.4 mm 1 mps 678 mmHg 96%
17:00 +4°C° 0.4 mm 1 mps 679 mmHg 96%
18:00 +4°C° 0.4 mm 1 mps 680 mmHg 96%
19:00 +4°C° 0.2 mm 1 mps 680 mmHg 96%
20:00 +4°C° 0.2 mm 1 mps 681 mmHg 96%
21:00 +4°C° 0.2 mm 1 mps 681 mmHg 96%
22:00 +4°C° 0.1 mm 1 mps 681 mmHg 95%
23:00 +4°C° 0.1 mm 1 mps 682 mmHg 95%
Show more